owner,sensor,date,latitude,longitude,vertical_datum,mass_concentration_of_oxygen_in_sea_water,qcFlag 
SCCF RECON,ioos:station:SCCF:51:1,2008-04-01T00:00:00Z,26.5545,-82.1715,1.91,7.17,1111122 
SCCF RECON,ioos:station:SCCF:51:1,2008-04-01T01:00:00Z,26.5545,-82.1715,1.92,6.93,1111122 
SCCF RECON,ioos:station:SCCF:51:1,2008-04-01T02:00:00Z,26.5545,-82.1715,1.897,6.84,1111122 
SCCF RECON,ioos:station:SCCF:51:1,2008-04-01T03:00:00Z,26.5545,-82.1715,1.848,6.62,1111122 
SCCF RECON,ioos:station:SCCF:51:1,2008-04-01T04:00:00Z,26.5545,-82.1715,1.779,6.75,1111122 
SCCF RECON,ioos:station:SCCF:51:1,2008-04-01T05:00:00Z,26.5545,-82.1715,1.713,6.88,1111122 
SCCF RECON,ioos:station:SCCF:51:1,2008-04-01T06:00:00Z,26.5545,-82.1715,1.624,6.64,1111122 
SCCF RECON,ioos:station:SCCF:51:1,2008-04-01T07:00:00Z,26.5545,-82.1715,1.529,6.63,1111122 
SCCF RECON,ioos:station:SCCF:51:1,2008-04-01T08:00:00Z,26.5545,-82.1715,1.436,6.73,1111122 
SCCF RECON,ioos:station:SCCF:51:1,2008-04-01T09:00:00Z,26.5545,-82.1715,1.387,6.83,1111122 
SCCF RECON,ioos:station:SCCF:51:1,2008-04-01T10:00:00Z,26.5545,-82.1715,1.392,6.86,1111122 
SCCF RECON,ioos:station:SCCF:51:1,2008-04-01T11:00:00Z,26.5545,-82.1715,1.477,6.49,1111122 
SCCF RECON,ioos:station:SCCF:51:1,2008-04-01T12:00:00Z,26.5545,-82.1715,1.595,6.26,1111122 
SCCF RECON,ioos:station:SCCF:51:1,2008-04-01T13:00:00Z,26.5545,-82.1715,1.705,6.41,1111122 
SCCF RECON,ioos:station:SCCF:51:1,2008-04-01T14:00:00Z,26.5545,-82.1715,1.811,6.34,1111122 
SCCF RECON,ioos:station:SCCF:51:1,2008-04-01T15:00:00Z,26.5545,-82.1715,1.865,6.54,1111122 
SCCF RECON,ioos:station:SCCF:51:1,2008-04-01T16:00:00Z,26.5545,-82.1715,1.887,6.74,1111122 
SCCF RECON,ioos:station:SCCF:51:1,2008-04-01T17:00:00Z,26.5545,-82.1715,1.882,6.75,1111122 
SCCF RECON,ioos:station:SCCF:51:1,2008-04-01T18:00:00Z,26.5545,-82.1715,1.84,7.15,1111122 
SCCF RECON,ioos:station:SCCF:51:1,2008-04-01T19:00:00Z,26.5545,-82.1715,1.787,7.39,1111122 
SCCF RECON,ioos:station:SCCF:51:1,2008-04-01T20:00:00Z,26.5545,-82.1715,1.743,7.29,1111122 
SCCF RECON,ioos:station:SCCF:51:1,2008-04-01T21:00:00Z,26.5545,-82.1715,1.744,7.94,1111122 
SCCF RECON,ioos:station:SCCF:51:1,2008-04-01T22:00:00Z,26.5545,-82.1715,1.767,7.75,1111122 
SCCF RECON,ioos:station:SCCF:51:1,2008-04-01T23:00:00Z,26.5545,-82.1715,1.814,8.12,1111122 
SCCF RECON,ioos:station:SCCF:51:1,2008-04-02T00:00:00Z,26.5545,-82.1715,1.875,7.55,1111122 
SCCF RECON,ioos:station:SCCF:51:1,2008-04-02T01:00:00Z,26.5545,-82.1715,1.942,7.26,1111122 
SCCF RECON,ioos:station:SCCF:51:1,2008-04-02T02:00:00Z,26.5545,-82.1715,1.957,6.88,1111122 
SCCF RECON,ioos:station:SCCF:51:1,2008-04-02T03:00:00Z,26.5545,-82.1715,1.947,6.85,1111122 
SCCF RECON,ioos:station:SCCF:51:1,2008-04-02T04:00:00Z,26.5545,-82.1715,1.883,7.11,1111122 
SCCF RECON,ioos:station:SCCF:51:1,2008-04-02T05:00:00Z,26.5545,-82.1715,1.789,7.13,1111122 
SCCF RECON,ioos:station:SCCF:51:1,2008-04-02T06:00:00Z,26.5545,-82.1715,1.682,7.01,1111122 
SCCF RECON,ioos:station:SCCF:51:1,2008-04-02T07:00:00Z,26.5545,-82.1715,1.587,6.91,1111122 
SCCF RECON,ioos:station:SCCF:51:1,2008-04-02T08:00:00Z,26.5545,-82.1715,1.5,6.92,1111122 
SCCF RECON,ioos:station:SCCF:51:1,2008-04-02T09:00:00Z,26.5545,-82.1715,1.43,6.99,1111122 
SCCF RECON,ioos:station:SCCF:51:1,2008-04-02T10:00:00Z,26.5545,-82.1715,1.389,6.98,1111122 
SCCF RECON,ioos:station:SCCF:51:1,2008-04-02T11:00:00Z,26.5545,-82.1715,1.43,6.88,1111122 
SCCF RECON,ioos:station:SCCF:51:1,2008-04-02T12:00:00Z,26.5545,-82.1715,1.52,6.65,1111122 
SCCF RECON,ioos:station:SCCF:51:1,2008-04-02T13:00:00Z,26.5545,-82.1715,1.63,6.18,1111122 
SCCF RECON,ioos:station:SCCF:51:1,2008-04-02T14:00:00Z,26.5545,-82.1715,1.741,6.56,1111122 
SCCF RECON,ioos:station:SCCF:51:1,2008-04-02T15:00:00Z,26.5545,-82.1715,1.848,6.71,1111122 
SCCF RECON,ioos:station:SCCF:51:1,2008-04-02T16:00:00Z,26.5545,-82.1715,1.907,6.64,1111122 
SCCF RECON,ioos:station:SCCF:51:1,2008-04-02T17:00:00Z,26.5545,-82.1715,1.885,6.85,1111122 
SCCF RECON,ioos:station:SCCF:51:1,2008-04-02T18:00:00Z,26.5545,-82.1715,1.822,6.94,1111122 
SCCF RECON,ioos:station:SCCF:51:1,2008-04-02T19:00:00Z,26.5545,-82.1715,1.745,7.37,1111122 
SCCF RECON,ioos:station:SCCF:51:1,2008-04-02T20:00:00Z,26.5545,-82.1715,1.662,7.71,1111122 
SCCF RECON,ioos:station:SCCF:51:1,2008-04-02T21:00:00Z,26.5545,-82.1715,1.613,7.86,1111122 
SCCF RECON,ioos:station:SCCF:51:1,2008-04-02T22:00:00Z,26.5545,-82.1715,1.631,7.8,1111122 
SCCF RECON,ioos:station:SCCF:51:1,2008-04-02T23:00:00Z,26.5545,-82.1715,1.686,7.79,1111122 
SCCF RECON,ioos:station:SCCF:51:1,2008-04-03T00:00:00Z,26.5545,-82.1715,1.729,7.42,1111122 
SCCF RECON,ioos:station:SCCF:51:1,2008-04-03T01:00:00Z,26.5545,-82.1715,1.816,7.18,1111122 
SCCF RECON,ioos:station:SCCF:51:1,2008-04-03T02:00:00Z,26.5545,-82.1715,1.916,7.12,1111122 
SCCF RECON,ioos:station:SCCF:51:1,2008-04-03T03:00:00Z,26.5545,-82.1715,1.98,6.98,1111122 
SCCF RECON,ioos:station:SCCF:51:1,2008-04-03T04:00:00Z,26.5545,-82.1715,1.98,6.84,1111122 
SCCF RECON,ioos:station:SCCF:51:1,2008-04-03T05:00:00Z,26.5545,-82.1715,1.919,6.83,1111122 
SCCF RECON,ioos:station:SCCF:51:1,2008-04-03T06:00:00Z,26.5545,-82.1715,1.82,6.92,1111122 
SCCF RECON,ioos:station:SCCF:51:1,2008-04-03T07:00:00Z,26.5545,-82.1715,1.702,6.94,1111122 
SCCF RECON,ioos:station:SCCF:51:1,2008-04-03T08:00:00Z,26.5545,-82.1715,1.589,6.85,1111122 
SCCF RECON,ioos:station:SCCF:51:1,2008-04-03T09:00:00Z,26.5545,-82.1715,1.497,7.17,1111122 
SCCF RECON,ioos:station:SCCF:51:1,2008-04-03T10:00:00Z,26.5545,-82.1715,1.43,7.45,1111122 
SCCF RECON,ioos:station:SCCF:51:1,2008-04-03T11:00:00Z,26.5545,-82.1715,1.421,7.51,1111122 
SCCF RECON,ioos:station:SCCF:51:1,2008-04-03T12:00:00Z,26.5545,-82.1715,1.498,6.9,1111122 
SCCF RECON,ioos:station:SCCF:51:1,2008-04-03T13:00:00Z,26.5545,-82.1715,1.612,6.54,1111122 
SCCF RECON,ioos:station:SCCF:51:1,2008-04-03T14:00:00Z,26.5545,-82.1715,1.739,6.46,1111122 
SCCF RECON,ioos:station:SCCF:51:1,2008-04-03T15:00:00Z,26.5545,-82.1715,1.847,6.4,1111122 
SCCF RECON,ioos:station:SCCF:51:1,2008-04-03T16:00:00Z,26.5545,-82.1715,1.92,6.6,1111122 
SCCF RECON,ioos:station:SCCF:51:1,2008-04-03T17:00:00Z,26.5545,-82.1715,1.93,6.73,1111122 
SCCF RECON,ioos:station:SCCF:51:1,2008-04-03T20:00:00Z,26.5545,-82.1715,1.68,7.85,1111122 
SCCF RECON,ioos:station:SCCF:51:1,2008-04-03T21:00:00Z,26.5545,-82.1715,1.588,8.25,1111122 
SCCF RECON,ioos:station:SCCF:51:1,2008-04-03T22:00:00Z,26.5545,-82.1715,1.523,8.55,1111122 
SCCF RECON,ioos:station:SCCF:51:1,2008-04-03T23:00:00Z,26.5545,-82.1715,1.516,8.34,1111122 
SCCF RECON,ioos:station:SCCF:51:1,2008-04-04T00:00:00Z,26.5545,-82.1715,1.581,8.2,1111122 
SCCF RECON,ioos:station:SCCF:51:1,2008-04-04T01:00:00Z,26.5545,-82.1715,1.689,7.21,1111122 
SCCF RECON,ioos:station:SCCF:51:1,2008-04-04T02:00:00Z,26.5545,-82.1715,1.831,7.18,1111122 
SCCF RECON,ioos:station:SCCF:51:1,2008-04-04T03:00:00Z,26.5545,-82.1715,1.95,7.08,1111122 
SCCF RECON,ioos:station:SCCF:51:1,2008-04-04T04:00:00Z,26.5545,-82.1715,2.024,7.16,1111122 
SCCF RECON,ioos:station:SCCF:51:1,2008-04-04T05:00:00Z,26.5545,-82.1715,1.991,6.74,1111122 
SCCF RECON,ioos:station:SCCF:51:1,2008-04-04T06:00:00Z,26.5545,-82.1715,1.909,6.89,1111122 
SCCF RECON,ioos:station:SCCF:51:1,2008-04-04T07:00:00Z,26.5545,-82.1715,1.8,6.67,1111122 
SCCF RECON,ioos:station:SCCF:51:1,2008-04-04T08:00:00Z,26.5545,-82.1715,1.689,6.83,1111122 
SCCF RECON,ioos:station:SCCF:51:1,2008-04-04T09:00:00Z,26.5545,-82.1715,1.583,6.49,1111122 
SCCF RECON,ioos:station:SCCF:51:1,2008-04-04T10:00:00Z,26.5545,-82.1715,1.499,6.05,1111122 
SCCF RECON,ioos:station:SCCF:51:1,2008-04-04T11:00:00Z,26.5545,-82.1715,1.462,6.09,1111122 
SCCF RECON,ioos:station:SCCF:51:1,2008-04-04T12:00:00Z,26.5545,-82.1715,1.516,5.35,1111122 
SCCF RECON,ioos:station:SCCF:51:1,2008-04-04T13:00:00Z,26.5545,-82.1715,1.633,5.8,1111122 
SCCF RECON,ioos:station:SCCF:51:1,2008-04-04T14:00:00Z,26.5545,-82.1715,1.78,6.2,1111122 
SCCF RECON,ioos:station:SCCF:51:1,2008-04-04T15:00:00Z,26.5545,-82.1715,1.913,6.04,1111122 
SCCF RECON,ioos:station:SCCF:51:1,2008-04-04T16:00:00Z,26.5545,-82.1715,2.004,6.6,1111122 
SCCF RECON,ioos:station:SCCF:51:1,2008-04-04T17:00:00Z,26.5545,-82.1715,2.035,6.63,1111122 
SCCF RECON,ioos:station:SCCF:51:1,2008-04-04T18:00:00Z,26.5545,-82.1715,1.992,6.61,1111122 
SCCF RECON,ioos:station:SCCF:51:1,2008-04-04T19:00:00Z,26.5545,-82.1715,1.908,7.11,1111122 
SCCF RECON,ioos:station:SCCF:51:1,2008-04-04T20:00:00Z,26.5545,-82.1715,1.794,7.74,1111122 
SCCF RECON,ioos:station:SCCF:51:1,2008-04-04T21:00:00Z,26.5545,-82.1715,1.668,7.76,1111122 
SCCF RECON,ioos:station:SCCF:51:1,2008-04-04T22:00:00Z,26.5545,-82.1715,1.562,7.33,1111122 
SCCF RECON,ioos:station:SCCF:51:1,2008-04-04T23:00:00Z,26.5545,-82.1715,1.49,6.9,1111122 
SCCF RECON,ioos:station:SCCF:51:1,2008-04-05T00:00:00Z,26.5545,-82.1715,1.503,7.02,1111122 
SCCF RECON,ioos:station:SCCF:51:1,2008-04-05T01:00:00Z,26.5545,-82.1715,1.598,7.17,1111122 
SCCF RECON,ioos:station:SCCF:51:1,2008-04-05T02:00:00Z,26.5545,-82.1715,1.737,6.54,1111122 
SCCF RECON,ioos:station:SCCF:51:1,2008-04-05T03:00:00Z,26.5545,-82.1715,1.89,6.69,1111122 
SCCF RECON,ioos:station:SCCF:51:1,2008-04-05T04:00:00Z,26.5545,-82.1715,2.003,6.1,1111122 
SCCF RECON,ioos:station:SCCF:51:1,2008-04-05T05:00:00Z,26.5545,-82.1715,2.064,6.35,1111122 
SCCF RECON,ioos:station:SCCF:51:1,2008-04-05T06:00:00Z,26.5545,-82.1715,2.03,6.31,1111122 
SCCF RECON,ioos:station:SCCF:51:1,2008-04-05T07:00:00Z,26.5545,-82.1715,1.952,6.04,1111122 
SCCF RECON,ioos:station:SCCF:51:1,2008-04-05T08:00:00Z,26.5545,-82.1715,1.847,5.81,1111122 
SCCF RECON,ioos:station:SCCF:51:1,2008-04-05T09:00:00Z,26.5545,-82.1715,1.731,5.52,1111122 
SCCF RECON,ioos:station:SCCF:51:1,2008-04-05T10:00:00Z,26.5545,-82.1715,1.633,5.24,1111122 
SCCF RECON,ioos:station:SCCF:51:1,2008-04-05T11:00:00Z,26.5545,-82.1715,1.583,4.92,1111122 
SCCF RECON,ioos:station:SCCF:51:1,2008-04-05T12:00:00Z,26.5545,-82.1715,1.6,4.99,1111122 
SCCF RECON,ioos:station:SCCF:51:1,2008-04-05T13:00:00Z,26.5545,-82.1715,1.686,5.38,1111122 
SCCF RECON,ioos:station:SCCF:51:1,2008-04-05T14:00:00Z,26.5545,-82.1715,1.797,5.3,1111122 
SCCF RECON,ioos:station:SCCF:51:1,2008-04-05T15:00:00Z,26.5545,-82.1715,1.936,5.95,1111122 
SCCF RECON,ioos:station:SCCF:51:1,2008-04-05T16:00:00Z,26.5545,-82.1715,2.03,6.39,1111122 
SCCF RECON,ioos:station:SCCF:51:1,2008-04-05T17:00:00Z,26.5545,-82.1715,2.066,6.22,1111122 
SCCF RECON,ioos:station:SCCF:51:1,2008-04-05T18:00:00Z,26.5545,-82.1715,2.032,6.42,1111122 
SCCF RECON,ioos:station:SCCF:51:1,2008-04-05T19:00:00Z,26.5545,-82.1715,1.945,6.52,1111122 
SCCF RECON,ioos:station:SCCF:51:1,2008-04-05T20:00:00Z,26.5545,-82.1715,1.847,6.9,1111122 
SCCF RECON,ioos:station:SCCF:51:1,2008-04-05T21:00:00Z,26.5545,-82.1715,1.72,6.87,1111122 
SCCF RECON,ioos:station:SCCF:51:1,2008-04-05T22:00:00Z,26.5545,-82.1715,1.593,6.62,1111122 
SCCF RECON,ioos:station:SCCF:51:1,2008-04-05T23:00:00Z,26.5545,-82.1715,1.483,6.53,1111122 
SCCF RECON,ioos:station:SCCF:51:1,2008-04-06T00:00:00Z,26.5545,-82.1715,1.414,6.39,1111122 
SCCF RECON,ioos:station:SCCF:51:1,2008-04-06T01:00:00Z,26.5545,-82.1715,1.436,6.44,1111122 
SCCF RECON,ioos:station:SCCF:51:1,2008-04-06T02:00:00Z,26.5545,-82.1715,1.541,6.51,1111122 
SCCF RECON,ioos:station:SCCF:51:1,2008-04-06T03:00:00Z,26.5545,-82.1715,1.687,6.06,1111122 
SCCF RECON,ioos:station:SCCF:51:1,2008-04-06T04:00:00Z,26.5545,-82.1715,1.877,6.27,1111122 
SCCF RECON,ioos:station:SCCF:51:1,2008-04-06T05:00:00Z,26.5545,-82.1715,1.898,6.14,1111122 
SCCF RECON,ioos:station:SCCF:51:1,2008-04-06T06:00:00Z,26.5545,-82.1715,1.926,6.1,1111122 
SCCF RECON,ioos:station:SCCF:51:1,2008-04-06T07:00:00Z,26.5545,-82.1715,1.834,5.96,1111122 
SCCF RECON,ioos:station:SCCF:51:1,2008-04-06T08:00:00Z,26.5545,-82.1715,1.722,5.86,1111122 
SCCF RECON,ioos:station:SCCF:51:1,2008-04-06T09:00:00Z,26.5545,-82.1715,1.632,5.84,1111122 
SCCF RECON,ioos:station:SCCF:51:1,2008-04-06T10:00:00Z,26.5545,-82.1715,1.573,5.72,1111122 
SCCF RECON,ioos:station:SCCF:51:1,2008-04-06T11:00:00Z,26.5545,-82.1715,1.547,5.66,1111122 
SCCF RECON,ioos:station:SCCF:51:1,2008-04-06T12:00:00Z,26.5545,-82.1715,1.539,5.47,1111122 
SCCF RECON,ioos:station:SCCF:51:1,2008-04-06T13:00:00Z,26.5545,-82.1715,1.591,5.63,1111122 
SCCF RECON,ioos:station:SCCF:51:1,2008-04-06T14:00:00Z,26.5545,-82.1715,1.663,5.59,1111122 
SCCF RECON,ioos:station:SCCF:51:1,2008-04-06T15:00:00Z,26.5545,-82.1715,1.809,5.42,1111122 
SCCF RECON,ioos:station:SCCF:51:1,2008-04-06T16:00:00Z,26.5545,-82.1715,1.933,5.86,1111122 
SCCF RECON,ioos:station:SCCF:51:1,2008-04-06T17:00:00Z,26.5545,-82.1715,2.054,6.13,1111122 
SCCF RECON,ioos:station:SCCF:51:1,2008-04-06T18:00:00Z,26.5545,-82.1715,2.08,6.38,1111122 
SCCF RECON,ioos:station:SCCF:51:1,2008-04-06T19:00:00Z,26.5545,-82.1715,2.013,6.47,1111122 
SCCF RECON,ioos:station:SCCF:51:1,2008-04-06T20:00:00Z,26.5545,-82.1715,1.89,6.71,1111122 
SCCF RECON,ioos:station:SCCF:51:1,2008-04-06T21:00:00Z,26.5545,-82.1715,1.73,6.64,1111122 
SCCF RECON,ioos:station:SCCF:51:1,2008-04-06T22:00:00Z,26.5545,-82.1715,1.584,6.3,1111122 
SCCF RECON,ioos:station:SCCF:51:1,2008-04-06T23:00:00Z,26.5545,-82.1715,1.465,6.48,1111122 
SCCF RECON,ioos:station:SCCF:51:1,2008-04-07T00:00:00Z,26.5545,-82.1715,1.372,7.81,1111122 
SCCF RECON,ioos:station:SCCF:51:1,2008-04-07T01:00:00Z,26.5545,-82.1715,1.32,7.29,1111122 
SCCF RECON,ioos:station:SCCF:51:1,2008-04-07T02:00:00Z,26.5545,-82.1715,1.445,6.16,1111122 
SCCF RECON,ioos:station:SCCF:51:1,2008-04-07T03:00:00Z,26.5545,-82.1715,1.449,6.05,1111122 
SCCF RECON,ioos:station:SCCF:51:1,2008-04-07T04:00:00Z,26.5545,-82.1715,1.547,6.06,1111122 
SCCF RECON,ioos:station:SCCF:51:1,2008-04-07T05:00:00Z,26.5545,-82.1715,1.664,5.85,1111122 
SCCF RECON,ioos:station:SCCF:51:1,2008-04-07T06:00:00Z,26.5545,-82.1715,1.7,5.83,1111122 
SCCF RECON,ioos:station:SCCF:51:1,2008-04-07T07:00:00Z,26.5545,-82.1715,1.764,5.92,1111122 
SCCF RECON,ioos:station:SCCF:51:1,2008-04-07T08:00:00Z,26.5545,-82.1715,1.782,5.6,1111122 
SCCF RECON,ioos:station:SCCF:51:1,2008-04-07T09:00:00Z,26.5545,-82.1715,1.761,5.43,1111122 
SCCF RECON,ioos:station:SCCF:51:1,2008-04-07T10:00:00Z,26.5545,-82.1715,1.72,4.94,1111122 
SCCF RECON,ioos:station:SCCF:51:1,2008-04-07T11:00:00Z,26.5545,-82.1715,1.66,5.23,1111122 
SCCF RECON,ioos:station:SCCF:51:1,2008-04-07T12:00:00Z,26.5545,-82.1715,1.61,5.61,1111122 
SCCF RECON,ioos:station:SCCF:51:1,2008-04-07T13:00:00Z,26.5545,-82.1715,1.58,5.74,1111122 
SCCF RECON,ioos:station:SCCF:51:1,2008-04-07T14:00:00Z,26.5545,-82.1715,1.64,5.42,1111122 
SCCF RECON,ioos:station:SCCF:51:1,2008-04-07T15:00:00Z,26.5545,-82.1715,1.755,5.48,1111122 
SCCF RECON,ioos:station:SCCF:51:1,2008-04-07T16:00:00Z,26.5545,-82.1715,1.92,5.7,1111122 
SCCF RECON,ioos:station:SCCF:51:1,2008-04-07T17:00:00Z,26.5545,-82.1715,2.05,5.83,1111122 
SCCF RECON,ioos:station:SCCF:51:1,2008-04-07T18:00:00Z,26.5545,-82.1715,2.104,5.88,1111122 
SCCF RECON,ioos:station:SCCF:51:1,2008-04-07T19:00:00Z,26.5545,-82.1715,2.052,6.17,1111122 
SCCF RECON,ioos:station:SCCF:51:1,2008-04-07T20:00:00Z,26.5545,-82.1715,1.947,6.5,1111122 
SCCF RECON,ioos:station:SCCF:51:1,2008-04-07T21:00:00Z,26.5545,-82.1715,1.816,6.53,1111122 
SCCF RECON,ioos:station:SCCF:51:1,2008-04-07T22:00:00Z,26.5545,-82.1715,1.669,6.49,1111122 
SCCF RECON,ioos:station:SCCF:51:1,2008-04-07T23:00:00Z,26.5545,-82.1715,1.521,6.53,1111122 
SCCF RECON,ioos:station:SCCF:51:1,2008-04-08T00:00:00Z,26.5545,-82.1715,1.393,6.43,1111122 
SCCF RECON,ioos:station:SCCF:51:1,2008-04-08T01:00:00Z,26.5545,-82.1715,1.288,6.76,1111122 
SCCF RECON,ioos:station:SCCF:51:1,2008-04-08T02:00:00Z,26.5545,-82.1715,1.228,7.05,1111122 
SCCF RECON,ioos:station:SCCF:51:1,2008-04-08T03:00:00Z,26.5545,-82.1715,1.275,6.68,1111122 
SCCF RECON,ioos:station:SCCF:51:1,2008-04-08T04:00:00Z,26.5545,-82.1715,1.37,5.96,1111122 
SCCF RECON,ioos:station:SCCF:51:1,2008-04-08T05:00:00Z,26.5545,-82.1715,1.512,5.66,1111122 
SCCF RECON,ioos:station:SCCF:51:1,2008-04-08T06:00:00Z,26.5545,-82.1715,1.637,6.01,1111122 
SCCF RECON,ioos:station:SCCF:51:1,2008-04-08T07:00:00Z,26.5545,-82.1715,1.742,5.76,1111122 
SCCF RECON,ioos:station:SCCF:51:1,2008-04-08T08:00:00Z,26.5545,-82.1715,1.796,5.53,1111122 
SCCF RECON,ioos:station:SCCF:51:1,2008-04-08T09:00:00Z,26.5545,-82.1715,1.785,5.66,1111122 
SCCF RECON,ioos:station:SCCF:51:1,2008-04-08T10:00:00Z,26.5545,-82.1715,1.719,5.51,1111122 
SCCF RECON,ioos:station:SCCF:51:1,2008-04-08T11:00:00Z,26.5545,-82.1715,1.638,5.53,1111122 
SCCF RECON,ioos:station:SCCF:51:1,2008-04-08T12:00:00Z,26.5545,-82.1715,1.6,5.55,1111122 
SCCF RECON,ioos:station:SCCF:51:1,2008-04-08T13:00:00Z,26.5545,-82.1715,1.646,5.52,1111122 
SCCF RECON,ioos:station:SCCF:51:1,2008-04-08T14:00:00Z,26.5545,-82.1715,1.735,5.32,1111122 
SCCF RECON,ioos:station:SCCF:51:1,2008-04-08T15:00:00Z,26.5545,-82.1715,1.831,5.36,1111122 
SCCF RECON,ioos:station:SCCF:51:1,2008-04-08T16:00:00Z,26.5545,-82.1715,1.956,5.42,1111122 
SCCF RECON,ioos:station:SCCF:51:1,2008-04-08T17:00:00Z,26.5545,-82.1715,2.058,5.81,1111122 
SCCF RECON,ioos:station:SCCF:51:1,2008-04-08T18:00:00Z,26.5545,-82.1715,2.103,5.86,1111122 
SCCF RECON,ioos:station:SCCF:51:1,2008-04-08T19:00:00Z,26.5545,-82.1715,2.098,5.8,1111122 
SCCF RECON,ioos:station:SCCF:51:1,2008-04-08T20:00:00Z,26.5545,-82.1715,2.035,6.58,1111122 
SCCF RECON,ioos:station:SCCF:51:1,2008-04-08T21:00:00Z,26.5545,-82.1715,1.948,6.88,1111122 
SCCF RECON,ioos:station:SCCF:51:1,2008-04-08T22:00:00Z,26.5545,-82.1715,1.828,7.07,1111122 
SCCF RECON,ioos:station:SCCF:51:1,2008-04-08T23:00:00Z,26.5545,-82.1715,1.683,7.02,1111122 
SCCF RECON,ioos:station:SCCF:51:1,2008-04-09T00:00:00Z,26.5545,-82.1715,1.549,7.0,1111122 
SCCF RECON,ioos:station:SCCF:51:1,2008-04-09T01:00:00Z,26.5545,-82.1715,1.418,7.69,1111122 
SCCF RECON,ioos:station:SCCF:51:1,2008-04-09T02:00:00Z,26.5545,-82.1715,1.315,8.06,1111122 
SCCF RECON,ioos:station:SCCF:51:1,2008-04-09T03:00:00Z,26.5545,-82.1715,1.25,8.07,1111122 
SCCF RECON,ioos:station:SCCF:51:1,2008-04-09T04:00:00Z,26.5545,-82.1715,1.299,7.71,1111122 
SCCF RECON,ioos:station:SCCF:51:1,2008-04-09T05:00:00Z,26.5545,-82.1715,1.411,7.15,1111122 
SCCF RECON,ioos:station:SCCF:51:1,2008-04-09T06:00:00Z,26.5545,-82.1715,1.537,6.1,1111122 
SCCF RECON,ioos:station:SCCF:51:1,2008-04-09T07:00:00Z,26.5545,-82.1715,1.638,5.99,1111122 
SCCF RECON,ioos:station:SCCF:51:1,2008-04-09T08:00:00Z,26.5545,-82.1715,1.7,5.86,1111122 
SCCF RECON,ioos:station:SCCF:51:1,2008-04-09T09:00:00Z,26.5545,-82.1715,1.727,5.67,1111122 
SCCF RECON,ioos:station:SCCF:51:1,2008-04-09T10:00:00Z,26.5545,-82.1715,1.711,5.82,1111122 
SCCF RECON,ioos:station:SCCF:51:1,2008-04-09T11:00:00Z,26.5545,-82.1715,1.677,5.73,1111122 
SCCF RECON,ioos:station:SCCF:51:1,2008-04-09T12:00:00Z,26.5545,-82.1715,1.661,5.64,1111122 
SCCF RECON,ioos:station:SCCF:51:1,2008-04-09T13:00:00Z,26.5545,-82.1715,1.663,5.57,1111122 
SCCF RECON,ioos:station:SCCF:51:1,2008-04-09T14:00:00Z,26.5545,-82.1715,1.707,5.83,1111122 
SCCF RECON,ioos:station:SCCF:51:1,2008-04-09T15:00:00Z,26.5545,-82.1715,1.767,5.96,1111122 
SCCF RECON,ioos:station:SCCF:51:1,2008-04-09T16:00:00Z,26.5545,-82.1715,1.83,6.3,1111122 
SCCF RECON,ioos:station:SCCF:51:1,2008-04-09T17:00:00Z,26.5545,-82.1715,1.92,6.37,1111122 
SCCF RECON,ioos:station:SCCF:51:1,2008-04-09T18:00:00Z,26.5545,-82.1715,2.012,6.54,1111122 
SCCF RECON,ioos:station:SCCF:51:1,2008-04-09T19:00:00Z,26.5545,-82.1715,2.057,6.58,1111122 
SCCF RECON,ioos:station:SCCF:51:1,2008-04-09T20:00:00Z,26.5545,-82.1715,2.024,6.72,1111122 
SCCF RECON,ioos:station:SCCF:51:1,2008-04-09T21:00:00Z,26.5545,-82.1715,1.961,6.85,1111122 
SCCF RECON,ioos:station:SCCF:51:1,2008-04-09T22:00:00Z,26.5545,-82.1715,1.867,6.73,1111122 
SCCF RECON,ioos:station:SCCF:51:1,2008-04-09T23:00:00Z,26.5545,-82.1715,1.748,6.76,1111122 
SCCF RECON,ioos:station:SCCF:51:1,2008-04-10T00:00:00Z,26.5545,-82.1715,1.626,6.65,1111122 
SCCF RECON,ioos:station:SCCF:51:1,2008-04-10T01:00:00Z,26.5545,-82.1715,1.503,6.57,1111122 
SCCF RECON,ioos:station:SCCF:51:1,2008-04-10T02:00:00Z,26.5545,-82.1715,1.39,6.94,1111122 
SCCF RECON,ioos:station:SCCF:51:1,2008-04-10T03:00:00Z,26.5545,-82.1715,1.298,7.32,1111122 
SCCF RECON,ioos:station:SCCF:51:1,2008-04-10T04:00:00Z,26.5545,-82.1715,1.256,7.25,1111122 
SCCF RECON,ioos:station:SCCF:51:1,2008-04-10T05:00:00Z,26.5545,-82.1715,1.307,7.02,1111122 
SCCF RECON,ioos:station:SCCF:51:1,2008-04-10T06:00:00Z,26.5545,-82.1715,1.399,6.48,1111122 
SCCF RECON,ioos:station:SCCF:51:1,2008-04-10T07:00:00Z,26.5545,-82.1715,1.514,5.97,1111122 
SCCF RECON,ioos:station:SCCF:51:1,2008-04-10T08:00:00Z,26.5545,-82.1715,1.618,5.9,1111122 
SCCF RECON,ioos:station:SCCF:51:1,2008-04-10T09:00:00Z,26.5545,-82.1715,1.705,5.83,1111122 
SCCF RECON,ioos:station:SCCF:51:1,2008-04-10T10:00:00Z,26.5545,-82.1715,1.77,5.6,1111122 
SCCF RECON,ioos:station:SCCF:51:1,2008-04-10T11:00:00Z,26.5545,-82.1715,1.793,5.62,1111122 
SCCF RECON,ioos:station:SCCF:51:1,2008-04-10T12:00:00Z,26.5545,-82.1715,1.796,5.68,1111122 
SCCF RECON,ioos:station:SCCF:51:1,2008-04-10T13:00:00Z,26.5545,-82.1715,1.81,5.72,1111122 
SCCF RECON,ioos:station:SCCF:51:1,2008-04-10T14:00:00Z,26.5545,-82.1715,1.845,5.77,1111122 
SCCF RECON,ioos:station:SCCF:51:1,2008-04-10T15:00:00Z,26.5545,-82.1715,1.903,5.84,1111122 
SCCF RECON,ioos:station:SCCF:51:1,2008-04-10T16:00:00Z,26.5545,-82.1715,1.958,6.22,1111122 
SCCF RECON,ioos:station:SCCF:51:1,2008-04-10T17:00:00Z,26.5545,-82.1715,2.015,6.44,1111122 
SCCF RECON,ioos:station:SCCF:51:1,2008-04-10T18:00:00Z,26.5545,-82.1715,2.076,6.74,1111122 
SCCF RECON,ioos:station:SCCF:51:1,2008-04-10T19:00:00Z,26.5545,-82.1715,2.115,6.87,1111122 
SCCF RECON,ioos:station:SCCF:51:1,2008-04-10T20:00:00Z,26.5545,-82.1715,2.111,6.97,1111122 
SCCF RECON,ioos:station:SCCF:51:1,2008-04-10T21:00:00Z,26.5545,-82.1715,2.068,7.2,1111122 
SCCF RECON,ioos:station:SCCF:51:1,2008-04-10T22:00:00Z,26.5545,-82.1715,2.0,7.35,1111122 
SCCF RECON,ioos:station:SCCF:51:1,2008-04-10T23:00:00Z,26.5545,-82.1715,1.907,7.34,1111122 
SCCF RECON,ioos:station:SCCF:51:1,2008-04-11T00:00:00Z,26.5545,-82.1715,1.79,7.13,1111122 
SCCF RECON,ioos:station:SCCF:51:1,2008-04-11T01:00:00Z,26.5545,-82.1715,1.67,6.94,1111122 
SCCF RECON,ioos:station:SCCF:51:1,2008-04-11T02:00:00Z,26.5545,-82.1715,1.55,6.77,1111122 
SCCF RECON,ioos:station:SCCF:51:1,2008-04-11T03:00:00Z,26.5545,-82.1715,1.447,6.9,1111122 
SCCF RECON,ioos:station:SCCF:51:1,2008-04-11T04:00:00Z,26.5545,-82.1715,1.357,7.54,1111122 
SCCF RECON,ioos:station:SCCF:51:1,2008-04-11T05:00:00Z,26.5545,-82.1715,1.304,7.54,1111122 
SCCF RECON,ioos:station:SCCF:51:1,2008-04-11T06:00:00Z,26.5545,-82.1715,1.335,7.21,1111122 
SCCF RECON,ioos:station:SCCF:51:1,2008-04-11T07:00:00Z,26.5545,-82.1715,1.428,6.58,1111122 
SCCF RECON,ioos:station:SCCF:51:1,2008-04-11T08:00:00Z,26.5545,-82.1715,1.524,6.21,1111122 
SCCF RECON,ioos:station:SCCF:51:1,2008-04-11T09:00:00Z,26.5545,-82.1715,1.614,5.74,1111122 
SCCF RECON,ioos:station:SCCF:51:1,2008-04-11T10:00:00Z,26.5545,-82.1715,1.696,5.8,1111122 
SCCF RECON,ioos:station:SCCF:51:1,2008-04-11T11:00:00Z,26.5545,-82.1715,1.767,5.92,1111122 
SCCF RECON,ioos:station:SCCF:51:1,2008-04-11T12:00:00Z,26.5545,-82.1715,1.822,5.93,1111122 
SCCF RECON,ioos:station:SCCF:51:1,2008-04-11T13:00:00Z,26.5545,-82.1715,1.849,5.85,1111122 
SCCF RECON,ioos:station:SCCF:51:1,2008-04-11T14:00:00Z,26.5545,-82.1715,1.849,5.99,1111122 
SCCF RECON,ioos:station:SCCF:51:1,2008-04-11T15:00:00Z,26.5545,-82.1715,1.853,6.17,1111122 
SCCF RECON,ioos:station:SCCF:51:1,2008-04-11T16:00:00Z,26.5545,-82.1715,1.888,6.35,1111122 
SCCF RECON,ioos:station:SCCF:51:1,2008-04-11T17:00:00Z,26.5545,-82.1715,1.941,6.6,1111122 
SCCF RECON,ioos:station:SCCF:51:1,2008-04-11T18:00:00Z,26.5545,-82.1715,1.998,6.91,1111122 
SCCF RECON,ioos:station:SCCF:51:1,2008-04-11T19:00:00Z,26.5545,-82.1715,2.049,7.09,1111122 
SCCF RECON,ioos:station:SCCF:51:1,2008-04-11T20:00:00Z,26.5545,-82.1715,2.084,7.06,1111122 
SCCF RECON,ioos:station:SCCF:51:1,2008-04-11T21:00:00Z,26.5545,-82.1715,2.083,7.18,1111122 